This is the latest recevied weather packets stored in our database for station/object VK6JI-11. If no packets are shown the sender has not sent any weather packets the latest 10 day(s).
| Time | Temp. | Humidity | Pressure | Rain* | Wind** | Luminosity | Snow |
|---|---|---|---|---|---|---|---|
| 1777519802 | 21.11° C | 70% | 1016.2 hPa | 0 mm | - | 84 W/m² | - |
| 1777519682 | 21.67° C | 69% | 1016.1 hPa | 0 mm | - | 86 W/m² | - |
| 1777519562 | 21.67° C | 69% | 1016.1 hPa | 0 mm | - | 104 W/m² | - |
| 1777519444 | 21.67° C | 69% | 1016.1 hPa | 0 mm | - | 137 W/m² | - |
| 1777519324 | 21.67° C | 68% | 1016.1 hPa | 0 mm | - | 227 W/m² | - |
| 1777519204 | 22.22° C | 68% | 1016 hPa | 0 mm | - | 308 W/m² | - |
| 1777519084 | 22.22° C | 68% | 1016 hPa | 0 mm | - | 338 W/m² | - |
| 1777518964 | 22.22° C | 69% | 1016 hPa | 0 mm | - | 364 W/m² | - |
| 1777518844 | 22.22° C | 70% | 1016.1 hPa | 0 mm | - | 761 W/m² | - |
| 1777518723 | 22.22° C | 72% | 1016.1 hPa | 0 mm | - | 835 W/m² | - |
| 1777518605 | 22.22° C | 72% | 1016.1 hPa | 0 mm | - | 726 W/m² | - |
| 1777518484 | 21.67° C | 72% | 1016.1 hPa | 0 mm | - | 714 W/m² | - |
| 1777518365 | 21.67° C | 71% | 1016.1 hPa | 0 mm | - | 698 W/m² | - |
| 1777518244 | 21.67° C | 71% | 1016 hPa | 0 mm | - | 703 W/m² | - |
| 1777518124 | 21.67° C | 71% | 1016 hPa | 0 mm | - | 695 W/m² | - |
| 1777518004 | 21.67° C | 71% | 1016.1 hPa | 0 mm | - | 654 W/m² | - |
| 1777517884 | 21.67° C | 72% | 1016.2 hPa | 0 mm | - | 656 W/m² | - |
| 1777517764 | 21.67° C | 72% | 1016.2 hPa | 0 mm | - | 654 W/m² | - |
| 1777517644 | 21.67° C | 73% | 1016.2 hPa | 0 mm | - | 536 W/m² | - |
| 1777517524 | 21.67° C | 74% | 1016.2 hPa | 0 mm | - | 737 W/m² | - |
| 1777517405 | 21.11° C | 74% | 1016.3 hPa | 0 mm | - | 698 W/m² | - |
| 1777517285 | 21.11° C | 76% | 1016.4 hPa | 0 mm | - | 656 W/m² | - |
| 1777517164 | 21.11° C | 77% | 1016.4 hPa | 0 mm | - | 157 W/m² | - |
| 1777517043 | 21.11° C | 77% | 1016.4 hPa | 0 mm | - | 668 W/m² | - |
| 1777516924 | 20.56° C | 77% | 1016.4 hPa | 0 mm | - | 640 W/m² | - |
* Rain latest hour (hover to see other rain measurements)
** Current wind speed in m/s (hover to see current wind gust speed)